Location: Hepcat Sky Observatory
(29.9800°N, 95.6500°W)
Time: 02:51:56
(UTC-05:00)

Cosmos 2366 rocket - Visible Passes

Search period start: 24 April 2014 00:00
Search period end: 04 May 2014 00:00
Orbit: 954 x 998 km, 82.9° (Epoch: 23 April)

Date Brightness Start Highest point End Pass type
(mag) Time Alt. Az. Time Alt. Az. Time Alt. Az.
24 Apr 4.0 21:37:57 37° SE 21:40:05 53° E 21:46:00 10° NNE visible
24 Apr 6.3 23:22:33 12° WSW 23:25:43 17° WNW 23:29:30 10° NW visible
25 Apr 4.0 22:02:12 27° SSW 22:05:42 79° W 22:11:51 10° N visible
26 Apr 5.1 20:41:53 10° SE 20:46:26 22° E 20:50:59 10° NE visible
26 Apr 5.1 22:26:12 12° SSW 22:31:28 39° W 22:37:09 10° NNW visible
27 Apr 4.2 21:06:06 10° SSE 21:11:53 45° E 21:17:39 10° NNE visible
27 Apr 6.2 22:53:06 10° WSW 22:57:24 20° WNW 23:01:43 10° NNW visible
28 Apr 3.9 21:31:19 10° S 21:37:28 89° E 21:43:37 10° N visible
29 Apr 5.3 20:14:13 10° SE 20:18:17 19° E 20:22:21 10° NE visible
29 Apr 4.9 21:57:21 10° SSW 22:03:11 46° W 22:09:03 10° N visible
30 Apr 4.5 20:38:06 10° SSE 20:43:41 38° E 20:49:15 10° NNE visible
30 Apr 6.1 22:24:21 10° SW 22:29:05 23° WNW 22:33:50 10° NNW visible
01 May 3.9 21:03:07 10° S 21:09:14 77° E 21:15:21 10° N visible
01 May 6.8 22:53:46 10° W 22:55:10 11° WNW 22:56:34 10° WNW visible
02 May 4.7 21:28:57 10° SSW 21:34:55 54° W 21:40:55 10° N visible
03 May 5.9 21:55:42 10° SW 22:00:46 27° WNW 22:05:53 10° NNW visible
